Data for 10/06/2009

Time Sea-Level Adjusted Pressure Absolute Pressure Temperature Relative Humidity Dew Point   
(mb) (inHg) (mb) (inHg) (C) (F) (%) (C) (F)
00:05 1021 30.15 850 25.1 0.1 32.2 88 -1.7 28.9
00:10 1021 30.15 850 25.1 -0.1 31.8 89 -1.8 28.8
00:15 1021 30.15 850 25.1 -0.1 31.8 89 -1.8 28.8
00:20 1021 30.15 850 25.1 -0.1 31.8 89 -1.7 29
00:25 1021 30.15 850 25.1 -0 32 88 -1.9 28.7
00:30 1021 30.15 850 25.1 -0.1 31.7 87 -2.1 28.3
00:35 1021 30.15 850 25.1 -0.3 31.5 87 -2.2 28.1
00:40 1021 30.15 850 25.1 -0.3 31.5 87 -2.2 28.1
00:45 1021 30.15 850 25.1 -0.4 31.2 87 -2.3 27.9
00:50 1021 30.15 850 25.1 -0.3 31.4 87 -2.3 27.9
00:55 1021 30.15 850 25.1 -0.1 31.9 87 -2 28.4
01:00 1021 30.15 850 25.1 -0.3 31.4 89 -1.9 28.6
01:05 1021 30.15 850 25.1 -0.5 31.1 90 -1.9 28.5
01:10 1021 30.15 850 25.1 -0.7 30.8 92 -1.8 28.7
01:15 1021 30.15 850 25.1 -1 30.3 91 -2.3 27.8
01:20 1021 30.15 850 25.1 -1.2 29.9 90 -2.6 27.3
01:25 1021 30.15 850 25.1 -1 30.2 88 -2.8 26.9
01:30 1021 30.15 850 25.1 -1.1 30.1 88 -2.9 26.8
01:35 1021 30.15 850 25.1 -1.1 30 90 -2.6 27.3
01:40 1021 30.15 850 25.1 -1.2 29.8 88 -3 26.6
01:45 1021 30.15 850 25.1 -1.2 29.9 88 -2.8 26.9
01:50 1021 30.15 850 25.1 -1.3 29.6 87 -3.2 26.3
01:55 1021 30.15 850 25.1 -1.6 29.1 88 -3.3 26.1
02:00 1021 30.15 850 25.1 -1.6 29.1 89 -3.1 26.3
02:05 1020 30.12 850 25.1 -1.7 29 91 -3 26.6
02:10 1021 30.15 850 25.1 -1.9 28.6 91 -3.1 26.4
02:15 1021 30.15 850 25.1 -1.9 28.6 90 -3.2 26.2
02:20 1020 30.12 850 25.1 -1.8 28.8 88 -3.4 25.8
02:25 1021 30.15 850 25.1 -1.7 29 89 -3.3 26.1
02:30 1021 30.15 850 25.1 -1.8 28.7 89 -3.4 25.9
02:35 1021 30.15 850 25.1 -1.7 28.9 87 -3.6 25.6
02:40 1021 30.15 850 25.1 -1.6 29.2 87 -3.4 25.9
02:45 1021 30.15 850 25.1 -2.4 27.7 91 -3.6 25.5
02:50 1021 30.15 850 25.1 -2.3 27.9 89 -3.8 25.1
02:55 1021 30.15 850 25.1 -2.2 28.1 88 -3.8 25.1
03:00 1021 30.15 850 25.1 -2.3 27.8 89 -3.9 25.1
03:05 1021 30.15 850 25.1 -2.7 27.1 90 -4.1 24.6
03:10 1021 30.15 850 25.1 -2.9 26.7 90 -4.4 24.1
03:15 1020 30.12 850 25.1 -3 26.6 91 -4.2 24.4
03:20 1020 30.12 850 25.1 -3.5 25.8 94 -4.3 24.3
03:25 1020 30.12 850 25.1 -3.8 25.2 95 -4.5 24
03:30 1020 30.12 850 25.1 -3.7 25.3 93 -4.7 23.6
03:35 1020 30.12 850 25.1 -3.8 25.1 93 -4.8 23.4
03:40 1020 30.12 850 25.1 -4 24.9 92 -5.1 22.9
03:45 1020 30.12 850 25.1 -3.9 24.9 88 -5.6 21.9
03:50 1020 30.12 850 25.1 -3.9 25 87 -5.8 21.5
03:55 1020 30.12 849 25.07 -3.7 25.3 87 -5.6 21.9
04:00 1020 30.12 849 25.07 -3.4 25.9 86 -5.5 22.2
04:05 1020 30.12 849 25.07 -3.4 25.9 85 -5.6 21.9
04:10 1020 30.12 849 25.07 -3.3 26.1 84 -5.6 21.9
04:15 1020 30.12 849 25.07 -3.2 26.2 83 -5.6 21.8
04:20 1020 30.12 849 25.07 -3.6 25.5 83 -6 21.1
04:25 1020 30.12 850 25.1 -3.4 25.8 81 -6.2 20.8
04:30 1020 30.12 850 25.1 -3.1 26.5 81 -5.8 21.5
04:35 1020 30.12 850 25.1 -3.1 26.3 82 -5.8 21.6
04:40 1020 30.12 850 25.1 -3.3 26 81 -6.1 21.1
04:45 1020 30.12 849 25.07 -3.6 25.5 83 -6.1 21
04:50 1020 30.12 849 25.07 -3.5 25.7 83 -6 21.2
04:55 1020 30.12 849 25.07 -3.2 26.3 81 -5.9 21.3
05:00 1020 30.12 849 25.07 -3.3 26 81 -6.2 20.9
05:05 1020 30.12 849 25.07 -3.4 25.9 82 -6.1 21
05:10 1020 30.12 849 25.07 -3.5 25.7 83 -6 21.3
05:15 1020 30.12 849 25.07 -3.9 25 86 -5.9 21.4
05:20 1020 30.12 849 25.07 -3.7 25.3 85 -5.9 21.3
05:25 1020 30.12 849 25.07 -4 24.8 87 -5.8 21.6
05:30 1020 30.12 849 25.07 -4.2 24.4 87 -6 21.2
05:35 1020 30.12 849 25.07 -4.2 24.4 88 -6 21.2
05:40 1020 30.12 849 25.07 -4.3 24.3 87 -6.1 21
05:45 1020 30.12 849 25.07 -4.6 23.8 90 -5.9 21.3
05:50 1020 30.12 849 25.07 -4.4 24 87 -6.2 20.8
05:55 1020 30.12 849 25.07 -4.4 24.1 88 -6.1 21
06:00 1020 30.12 849 25.07 -4.3 24.3 87 -6.1 21
06:05 1020 30.12 849 25.07 -4.2 24.5 87 -6 21.2
06:10 1020 30.12 849 25.07 -4.2 24.5 86 -6.2 20.9
06:15 1020 30.12 849 25.07 -4.2 24.5 86 -6.2 20.8
06:20 1020 30.12 849 25.07 -4.5 23.9 87 -6.3 20.7
06:25 1020 30.12 849 25.07 -4.8 23.4 88 -6.5 20.3
06:30 1020 30.12 849 25.07 -4.9 23.1 88 -6.6 20.1
06:35 1020 30.12 849 25.07 -4.9 23.3 89 -6.4 20.4
06:40 1020 30.12 849 25.07 -4.9 23.2 90 -6.4 20.5
06:45 1020 30.12 849 25.07 -4.7 23.5 89 -6.3 20.7
06:50 1020 30.12 849 25.07 -4.5 23.9 88 -6.3 20.7
06:55 1020 30.12 849 25.07 -4.7 23.6 88 -6.4 20.4
07:00 1020 30.12 849 25.07 -4.6 23.7 87 -6.5 20.2
07:05 1020 30.12 849 25.07 -4.3 24.2 86 -6.4 20.5
07:10 1020 30.12 849 25.07 -4.5 23.8 86 -6.5 20.3
07:15 1020 30.12 849 25.07 -4.9 23.3 88 -6.5 20.2
07:20 1020 30.12 849 25.07 -4.4 24.2 85 -6.5 20.2
07:25 1020 30.12 849 25.07 -4.2 24.4 85 -6.4 20.6
07:30 1020 30.12 849 25.07 -4.4 24.1 87 -6.2 20.8
07:35 1020 30.12 849 25.07 -4.3 24.2 87 -6.1 21
07:40 1020 30.12 849 25.07 -4.4 24.1 87 -6.2 20.8
07:45 1020 30.12 849 25.07 -4.6 23.7 88 -6.3 20.7
07:50 1020 30.12 849 25.07 -4.3 24.2 87 -6.2 20.8
07:55 1020 30.12 849 25.07 -4 24.9 85 -6.1 21
08:00 1020 30.12 849 25.07 -4.1 24.7 86 -6 21.1
08:05 1020 30.12 849 25.07 -3.9 25 85 -6 21.3
08:10 1020 30.12 849 25.07 -3.8 25.1 84 -6.1 21
08:15 1020 30.12 849 25.07 -3.6 25.6 84 -5.8 21.5
08:20 1020 30.12 849 25.07 -4 24.8 86 -6 21.2
08:25 1020 30.12 849 25.07 -3.9 24.9 85 -6.1 20.9
08:30 1020 30.12 849 25.07 -3.1 26.3 79 -6.3 20.7
08:35 1020 30.12 849 25.07 -2.3 27.9 74 -6.3 20.6
08:40 1020 30.12 849 25.07 -1.1 30.1 73 -5.2 22.6
08:45 1019 30.09 849 25.07 -0.7 30.7 76 -4.4 24.1
08:50 1020 30.12 849 25.07 -1.7 29 79 -4.8 23.3
08:55 1020 30.12 849 25.07 -1.9 28.5 79 -5.1 22.7
09:00 1019 30.09 849 25.07 -1.3 29.6 74 -5.3 22.4
09:05 1020 30.12 849 25.07 -0.6 31 73 -4.8 23.4
09:10 1019 30.09 849 25.07 -1 30.2 76 -4.8 23.4
09:15 1019 30.09 849 25.07 -0.5 31.1 69 -5.5 22
09:20 1019 30.09 849 25.07 -0.8 30.5 72 -5.3 22.5
09:25 1019 30.09 849 25.07 -0.8 30.5 73 -5 23
09:30 1019 30.09 849 25.07 -0.4 31.4 74 -4.4 24.1
09:35 1019 30.09 849 25.07 0.3 32.5 71 -4.3 24.2
09:40 1019 30.09 849 25.07 0.7 33.3 66 -4.9 23.2
09:45 1019 30.09 849 25.07 0.8 33.4 73 -3.6 25.6
09:50 1019 30.09 849 25.07 0.7 33.2 70 -4.1 24.7
09:55 1019 30.09 849 25.07 1.4 34.5 66 -4.3 24.3
10:00 1019 30.09 849 25.07 2.4 36.4 64 -3.7 25.4
10:05 1019 30.09 849 25.07 2 35.6 70 -3 26.6
10:10 1019 30.09 849 25.07 1.8 35.3 71 -2.9 26.7
10:15 1019 30.09 849 25.07 2.1 35.7 72 -2.4 27.7
10:20 1019 30.09 849 25.07 2.7 36.9 72 -1.8 28.7
10:25 1019 30.09 849 25.07 3.5 38.3 62 -3.2 26.3
10:30 1019 30.09 849 25.07 4.1 39.4 59 -3.2 26.2
10:35 1019 30.09 848 25.04 4.6 40.3 53 -4.1 24.6
10:40 1019 30.09 848 25.04 4.4 40 55 -3.9 24.9
10:45 1019 30.09 848 25.04 3.8 38.8 57 -3.9 25
10:50 1019 30.09 848 25.04 2.7 36.9 59 -4.5 24
10:55 1019 30.09 848 25.04 2.4 36.4 58 -5.1 22.9
11:00 1019 30.09 848 25.04 2.1 35.7 60 -4.9 23.2
11:05 1019 30.09 848 25.04 2.1 35.8 59 -5.2 22.7
11:10 1019 30.09 848 25.04 2.4 36.3 58 -5 23
11:15 1019 30.09 848 25.04 2.6 36.7 57 -5 22.9
11:20 1019 30.09 848 25.04 2.4 36.4 59 -4.8 23.3
11:25 1019 30.09 848 25.04 2.6 36.7 58 -4.9 23.2
11:30 1019 30.09 848 25.04 2.8 37.1 59 -4.3 24.2
11:35 1019 30.09 848 25.04 2.9 37.2 57 -4.7 23.5
11:40 1019 30.09 848 25.04 3.5 38.3 56 -4.6 23.7
11:45 1019 30.09 848 25.04 3.9 39.1 54 -4.5 23.8
11:50 1019 30.09 848 25.04 4.8 40.7 52 -4.1 24.6
11:55 1019 30.09 848 25.04 4.7 40.4 54 -3.8 25.2
12:00 1019 30.09 848 25.04 3.9 38.9 58 -3.7 25.3
12:05 1018 30.06 848 25.04 3.8 38.9 54 -4.6 23.7
12:10 1018 30.06 848 25.04 4.9 40.9 48 -5.2 22.6
12:15 1018 30.06 848 25.04 6.1 42.9 47 -4.3 24.2
12:20 1018 30.06 848 25.04 6.6 43.8 47 -3.9 25
12:25 1018 30.06 847 25.01 7.1 44.7 45 -4.2 24.4
12:30 1018 30.06 847 25.01 7.2 45 46 -3.5 25.7
12:35 1018 30.06 847 25.01 7.3 45.1 46 -3.6 25.5
12:40 1018 30.06 847 25.01 7.4 45.4 47 -3.2 26.2
12:45 1018 30.06 847 25.01 7.8 46 46 -3.2 26.3
12:50 1018 30.06 847 25.01 7.3 45.1 49 -2.7 27.1
12:55 1018 30.06 847 25.01 6.4 43.5 49 -3.6 25.5
13:00 1018 30.06 847 25.01 6.8 44.3 48 -3.4 26
13:05 1018 30.06 847 25.01 6.3 43.3 50 -3.3 26
13:10 1018 30.06 847 25.01 5.6 42.1 51 -3.7 25.3
13:15 1018 30.06 847 25.01 5.7 42.3 49 -4 24.8
13:20 1018 30.06 847 25.01 5.8 42.4 50 -3.9 25
13:25 1018 30.06 847 25.01 6.6 43.8 50 -3.2 26.2
13:30 1018 30.06 847 25.01 6.7 44.1 49 -3.2 26.2
13:35 1018 30.06 847 25.01 6 42.8 49 -3.8 25.1
13:40 1017 30.03 847 25.01 6.1 43 50 -3.6 25.6
13:45 1017 30.03 846 24.98 6.1 42.9 49 -3.7 25.3
13:50 1017 30.03 846 24.98 6.3 43.3 49 -3.6 25.5
13:55 1017 30.03 846 24.98 6.2 43.2 50 -3.4 25.8
14:00 1017 30.03 846 24.98 6.7 44.1 49 -3.2 26.2
14:05 1017 30.03 846 24.98 6.4 43.5 48 -3.9 25
14:10 1017 30.03 846 24.98 7.1 44.8 46 -3.7 25.3
14:15 1017 30.03 846 24.98 7.2 44.9 48 -3.1 26.4
14:20 1017 30.03 846 24.98 6.6 43.9 49 -3.4 25.9
14:25 1017 30.03 846 24.98 6.9 44.4 48 -3.4 26
14:30 1017 30.03 846 24.98 7.1 44.7 47 -3.6 25.5
14:35 1017 30.03 846 24.98 6.8 44.3 49 -3.1 26.4
14:40 1017 30.03 846 24.98 6.9 44.4 49 -3.1 26.5
14:45 1016 30 846 24.98 7 44.6 47 -3.5 25.7
14:50 1016 30 846 24.98 7.1 44.8 47 -3.4 26
14:55 1016 30 846 24.98 7.3 45.1 46 -3.6 25.4
15:00 1016 30 846 24.98 7.7 45.8 45 -3.6 25.5
15:05 1016 30 846 24.98 7.7 45.9 44 -3.7 25.4
15:10 1016 30 845 24.95 7.7 45.8 45 -3.4 25.9
15:15 1016 30 845 24.95 7.3 45.1 47 -3.3 26
15:20 1016 30 845 24.95 7.4 45.3 46 -3.5 25.7
15:25 1016 30 845 24.95 7.4 45.3 44 -4.1 24.7
15:30 1016 30 845 24.95 7.9 46.2 43 -3.8 25.1
15:35 1016 30 845 24.95 7.9 46.3 43 -3.8 25.1
15:40 1016 30 845 24.95 8 46.5 44 -3.4 25.8
15:45 1016 30 845 24.95 8 46.5 44 -3.6 25.5
15:50 1016 30 845 24.95 8 46.4 44 -3.5 25.8
15:55 1016 30 845 24.95 8.2 46.8 43 -3.6 25.5
16:00 1016 30 845 24.95 7.8 46 45 -3.4 25.9
16:05 1016 30 845 24.95 8.2 46.8 43 -3.7 25.4
16:10 1016 30 845 24.95 8.2 46.8 44 -3.2 26.2
16:15 1016 30 845 24.95 7.9 46.3 44 -3.7 25.4
16:20 1016 30 845 24.95 7.8 46 43 -4.1 24.6
16:25 1016 30 845 24.95 8 46.3 44 -3.6 25.5
16:30 1016 30 845 24.95 7.6 45.7 45 -3.4 25.8
16:35 1015 29.97 845 24.95 7.4 45.4 45 -3.8 25.2
16:40 1015 29.97 845 24.95 8 46.3 44 -3.5 25.7
16:45 1015 29.97 845 24.95 8.9 48 41 -3.8 25.2
16:50 1015 29.97 845 24.95 9 48.1 39 -4.2 24.4
16:55 1015 29.97 845 24.95 8.6 47.5 40 -4.2 24.4
17:00 1015 29.97 845 24.95 8.6 47.4 42 -3.7 25.3
17:05 1015 29.97 844 24.92 8.6 47.5 43 -3.3 26.1
17:10 1015 29.97 845 24.95 8.7 47.7 40 -4 24.8
17:15 1015 29.97 844 24.92 8.1 46.5 45 -3 26.5
17:20 1015 29.97 844 24.92 8.3 47 43 -3.4 25.9
17:25 1015 29.97 844 24.92 8.8 47.9 44 -2.8 27
17:30 1015 29.97 844 24.92 8.6 47.5 45 -2.6 27.3
17:35 1015 29.97 844 24.92 8.5 47.3 45 -2.6 27.3
17:40 1015 29.97 844 24.92 8.4 47.1 47 -2.3 27.9
17:45 1015 29.97 844 24.92 7.9 46.2 50 -1.9 28.7
17:50 1015 29.97 844 24.92 8.1 46.5 48 -2.2 28.1
17:55 1015 29.97 844 24.92 8.7 47.7 47 -2.1 28.3
18:00 1015 29.97 844 24.92 9.1 48.4 46 -1.8 28.7
18:05 1015 29.97 844 24.92 9.4 48.9 46 -1.6 29.1
18:10 1015 29.97 844 24.92 9.4 48.9 48 -1 30.3
18:15 1015 29.97 844 24.92 9.2 48.5 49 -1 30.2
18:20 1015 29.97 844 24.92 9.1 48.5 50 -0.7 30.7
18:25 1015 29.97 844 24.92 9 48.2 52 -0.4 31.2
18:30 1015 29.97 844 24.92 8.8 47.8 54 -0.1 31.9
18:35 1015 29.97 844 24.92 8.3 46.9 58 0.4 32.8
18:40 1015 29.97 844 24.92 7.3 45.1 64 0.9 33.6
18:45 1015 29.97 844 24.92 7.2 44.9 63 0.5 32.9
18:50 1015 29.97 844 24.92 6.9 44.3 64 0.5 32.9
18:55 1015 29.97 844 24.92 6.7 44.1 64 0.5 32.8
19:00 1015 29.97 844 24.92 6.9 44.3 64 0.5 33
19:05 1015 29.97 844 24.92 6.8 44.2 64 0.5 33
19:10 1015 29.97 844 24.92 6.7 44.1 65 0.6 33.2
19:15 1015 29.97 844 24.92 6.5 43.7 65 0.5 32.9
19:20 1015 29.97 844 24.92 6.4 43.5 65 0.2 32.4
19:25 1015 29.97 844 24.92 6.3 43.3 68 0.8 33.4
19:30 1015 29.97 844 24.92 5.5 41.9 74 1.2 34.1
19:35 1015 29.97 844 24.92 5 40.9 74 0.7 33.2
19:40 1015 29.97 844 24.92 5.1 41.1 69 -0.1 31.7
19:45 1015 29.97 844 24.92 5.2 41.4 66 -0.5 31
19:50 1015 29.97 844 24.92 5 41.1 68 -0.3 31.4
19:55 1015 29.97 844 24.92 4.4 40 70 -0.6 30.9
20:00 1015 29.97 844 24.92 4.4 39.8 71 -0.4 31.3
20:05 1015 29.97 844 24.92 4.3 39.8 73 -0.1 31.8
20:10 1015 29.97 844 24.92 4.2 39.6 76 0.3 32.6
20:15 1015 29.97 844 24.92 3.6 38.4 80 0.4 32.7
20:20 1015 29.97 844 24.92 3.2 37.7 81 0.2 32.3
20:25 1015 29.97 845 24.95 3 37.4 81 0.1 32.2
20:30 1016 30 845 24.95 2.9 37.2 80 -0.3 31.5
20:35 1016 30 845 24.95 3.2 37.8 76 -0.5 31
20:40 1016 30 845 24.95 3.5 38.3 72 -1 30.2
20:45 1015 29.97 845 24.95 3.9 39.1 70 -1.1 30.1
20:50 1016 30 845 24.95 4.3 39.8 61 -2.6 27.4
20:55 1016 30 845 24.95 6.2 43.1 53 -2.7 27.1
21:00 1015 29.97 845 24.95 6.7 44.1 53 -2.2 28.1
21:05 1015 29.97 845 24.95 6.7 44 53 -2.2 28
21:10 1015 29.97 845 24.95 6.6 43.9 53 -2.2 28
21:15 1015 29.97 845 24.95 6.7 44 53 -2.1 28.1
21:20 1016 30 845 24.95 6.6 43.8 54 -2.1 28.2
21:25 1016 30 845 24.95 6.4 43.6 55 -2 28.4
21:30 1016 30 845 24.95 6 42.8 57 -1.8 28.7
21:35 1016 30 845 24.95 5.6 42.2 59 -1.8 28.8
21:40 1016 30 845 24.95 5.3 41.6 60 -1.9 28.6
21:45 1016 30 845 24.95 5.2 41.4 60 -2 28.4
21:50 1016 30 845 24.95 5.5 41.9 56 -2.5 27.6
21:55 1016 30 845 24.95 5.8 42.5 57 -2.1 28.2
22:00 1016 30 845 24.95 5.9 42.5 57 -2 28.4
22:05 1016 30 845 24.95 6 42.7 56 -2.2 28.1
22:10 1016 30 845 24.95 6.2 43.2 54 -2.4 27.6
22:15 1016 30 845 24.95 6.5 43.7 53 -2.4 27.7
22:20 1016 30 845 24.95 6.6 43.8 53 -2.3 27.9
22:25 1016 30 845 24.95 6.5 43.8 53 -2.2 28
22:30 1016 30 845 24.95 6.6 43.8 55 -1.7 28.9
22:35 1016 30 845 24.95 6.3 43.3 58 -1.4 29.5
22:40 1016 30 845 24.95 5.9 42.6 59 -1.6 29.1
22:45 1016 30 845 24.95 5.8 42.5 58 -1.8 28.8
22:50 1016 30 845 24.95 5.9 42.7 57 -2 28.5
22:55 1016 30 845 24.95 6.1 42.9 55 -2.3 27.9
23:00 1016 30 845 24.95 6.2 43.2 55 -2.2 28
23:05 1016 30 845 24.95 6.3 43.3 55 -2 28.4
23:10 1016 30 845 24.95 6.3 43.4 55 -1.9 28.6
23:15 1016 30 845 24.95 6.4 43.4 56 -1.7 28.9
23:20 1016 30 845 24.95 6.3 43.4 56 -1.9 28.6
23:25 1016 30 845 24.95 6.4 43.4 55 -2 28.4
23:30 1016 30 845 24.95 6.4 43.6 56 -1.7 28.9
23:35 1016 30 845 24.95 6.4 43.5 56 -1.6 29
23:40 1016 30 845 24.95 6.5 43.7 54 -2.1 28.2
23:45 1016 30 845 24.95 6.7 44 53 -2.3 27.9
23:50 1016 30 845 24.95 6.8 44.3 52 -2.2 28
23:55 1016 30 845 24.95 6.8 44.3 53 -2 28.5
24:00 1016 30 845 24.95 6.8 44.2 52 -2.3 27.9